SCP
0 0 0 0 0 0 0 0 0 0 0 0 0 0 0 0 0 0 0 0 0 0 0 0 0 0 0 0 0 0 0 0 0 0 0 0 0 0 0 0 0 0 0
0 0 0 0 0 0 0 0 0 0 0 0 0 0 0 0 0 0 0 0 0 0 0 0 0 0 0 0 0 0 0 0 0 0 0 0 0 0 0 0 0 0 0
0 0 0 0 0 0 0 0 0 0 0 0 0 0 0 0 0 0 0 0 0 0 0 0 0 0 0 0 0 0 0 0 0 0 0 0 0 0 0 0 0 0 0
0 0 0 0 0 0 0 0 0 0 0 0 0 0 0 0 0 0 0 0 0 0 0 0 0 0 0 0 0 0 0 0 0 0 0 0 0 0 0 0 0 0 0
0 0 0 0 0 0 0 0 0 0 0 0 0 0 0 0 0 0 0 0 0 0 0 0 0 0 0 0 0 0 0 0 0 0 0 0 0 0 0 0 0 0 0
0 0 0 0 0 0 0 0 0 0 0 0 0 0 0 0 0 0 0 0 0 0 0 0 0 0 0 0 0 0 0 0 0 0 0 0 0 0 0 0 0 0 0
0 0 0 0 0 0 0 0 0 0 0 0 0 0 0 0 0 0 0 0 0 0 0 0 0 0 0 0 0 0 0 0 0 0 0 0 0 0 0 0 0 0 0
0 0 0 0 0 0 0 0 0 0 0 0 0 0 0 0 0 0 0 0 0 0 0 0 0 0 0 0 0 0 0 0 0 0 0 0 0 0 0 0 0 0 0
0 0 0 0 0 0 0 0 0 0 0 0 0 0 0 0 0 0 0 0 0 0 0 0 0 0 0 0 0 0 0 0 0 0 0 0 0 0 0 0 0 0 0
0 0 0 0 0 0 0 0 0 0 0 0 0 0 0 0 0 0 0 0 0 0 0 0 0 0 0 0 0 0 0 0 0 0 0 0 0 0 0 0 0 0 0
0 0 0 0 0 0 0 0 0 0 0 0 0 0 0 0 0 0 0 0 0 0 0 0 0 0 0 0 0 0 0 0 0 0 0 0 0 0 0 0 0 0 0
0 0 0 0 0 0 0 0 0 0 0 0 0 0 0 0 0 0 0 0 0 0 0 0 0 0 0 0 0 0 0 0 0 0 0 0 0 0 0 0 0 0 0
0 0 0 0 0 0 0 0 0 0 0 0 0 0 0 0 0 0 0 0 0 0 0 0 0 0 0 0 0 0 0 0 0 0 0 0 0 0 0 0 0 0 0
0 0 0 0 0 0 0 0 0 0 0 0 0 0 0 0 0 0 0 0 0 0 0 0 0 0 0 0 0 0 0 0 0 0 0 0 0 0 0 0 0 0 0
0 0 0 0 0 0 0 0 0 0 0 0 0 0 0 0 0 0 0 0 0 0 0 0 0 0 0 0 0 0 0 0 0 0 0 0 0 0 0 0 0 0 0
0 0 0 0 0 0 0 0 0 0 0 0 0 0 0 0 0 0 0 0 0 0 0 0 0 0 0 0 0 0 0 0 0 0 0 0 0 0 0 0 0 0 0
0 0 0 0 0 0 0 0 0 0 0 0 0 0 0 0 0 0 0 0 0 0 0 0 0 0 0 0 0 0 0 0 0 0 0 0 0 0 0 0 0 0 0
0 0 0 0 0 0 0 0 0 0 0 0 0 0 0 0 0 0 0 0 0 0 0 0 0 0 0 0 0 0 0 0 0 0 0 0 0 0 0 0 0 0 0
0 0 0 0 0 0 0 0 0 0 0 0 0 0 0 0 0 0 0 0 0 0 0 0 0 0 0 0 0 0 0 0 0 0 0 0 0 0 0 0 0 0 0
0 0 0 0 0 0 0 0 0 0 0 0 0 0 0 0 0 0 0 0 0 0 0 0 0 0 0 0 0 0 0 0 0 0 0 0 0 0 0 0 0 0 0
0 0 0 0 0 0 0 0 0 0 0 0 0 0 0 0 0 0 0 0 0 0 0 0 0 0 0 0 0 0 0 0 0 0 0 0 0 0 0 0 0 0 0
0 0 0 0 0 0 0 0 0 0 0 0 0 0 0 0 0 0 0 0 0 0 0 0 0 0 0 0 0 0 0 0 0 0 0 0 0 0 0 0 0 0 0
0 0 0 0 0 0 0 0 0 0 0 0 0 0 0 0 0 0 0 0 0 0 0 0 0 0 0 0 0 0 0 0 0 0 0 0 0 0 0 0 0 0 0
0 0 0 0 0 0 0 0 0 0 0 0 0 0 0 0 0 0 0 0 0 0 0 0 0 0 0 0 0 0 0 0 0 0 0 0 0 0 0 0 0 0 0
0 0 0 0 0 0 0 0 0 0 0 0 0 0 0 0 0 0 0 0 0 0 0 0 0 0 0 0 0 0 0 0 0 0 0 0 0 0 0 0 0 0 0
0 0 0 0 0 0 0 0 0 0 0 0 0 0 0 0 0 0 0 0 0 0 0 0 0 0 0 0 0 0 0 0 0 0 0 0 0 0 0 0 0 0 0
Wind_Speed_500mb
16 18 22 19 18 18 16 17 17 19 20 20 25 28 29 28 32 33 35 37 33 30 27 25 28 27 26 27 27 27 30 39 38 37 35 33 30 30 27 20 18 21 29
8 12 14 15 19 21 19 19 18 18 20 24 23 25 31 32 33 40 39 40 41 41 38 34 32 34 34 34 33 34 35 40 43 38 37 35 31 27 23 19 21 30 31
10 12 14 16 18 20 19 22 25 24 23 23 23 21 23 27 34 41 40 43 42 43 44 41 40 38 41 39 40 38 42 44 46 47 41 36 33 28 26 21 28 32 30
7 10 13 15 17 19 21 24 26 25 28 35 33 32 30 31 30 31 41 46 47 50 48 45 45 45 45 45 44 46 45 48 52 53 48 43 39 35 33 26 34 43 41
12 13 15 18 19 19 19 20 22 27 29 35 39 40 39 39 37 36 34 34 37 40 44 49 48 46 48 51 50 51 49 49 53 58 54 50 46 45 42 37 42 51 46
13 15 14 15 16 16 16 20 21 25 26 28 33 43 42 44 44 43 42 40 39 40 41 41 39 43 42 47 50 55 54 51 52 66 57 56 51 51 49 44 43 54 53
13 15 15 15 17 18 17 18 21 25 27 32 32 28 32 41 46 46 38 33 31 40 45 43 37 37 39 45 48 50 57 56 51 59 70 63 57 54 53 50 50 52 51
15 16 17 17 17 18 18 18 19 22 24 17 27 30 22 30 9 13 14 16 18 25 36 41 30 33 35 39 42 49 48 54 56 57 59 59 69 66 60 58 57 56 54
18 19 19 18 19 21 21 21 22 18 24 21 16 16 14 10 32 11 10 13 18 20 16 29 45 54 47 40 43 48 49 54 58 62 64 62 69 78 70 68 66 63 55
19 21 20 18 18 19 20 22 22 22 23 27 26 22 29 37 39 27 14 16 14 25 34 32 34 33 32 47 47 47 45 46 53 60 59 66 65 85 77 77 73 62 59
18 19 20 18 18 18 18 19 20 23 27 34 34 32 31 33 38 44 47 42 44 40 44 50 44 35 35 32 35 43 49 54 56 60 65 61 60 68 63 84 80 69 71
16 15 18 17 18 19 22 24 25 26 27 29 30 37 39 34 38 40 45 51 53 54 48 41 41 47 45 39 37 41 42 43 55 54 59 68 60 63 69 72 71 72 70
17 17 19 21 23 25 28 32 30 27 25 29 33 37 37 46 41 35 40 46 50 54 55 50 41 46 49 50 49 46 48 49 50 53 48 54 56 58 62 64 88 83 88
21 19 21 23 24 28 33 35 33 31 31 33 34 36 35 41 46 42 42 45 47 38 48 49 48 40 37 41 41 44 43 44 46 47 48 51 60 65 62 68 73 80 83
17 20 21 25 29 35 34 36 37 33 30 32 30 25 28 29 35 41 41 38 40 44 42 42 36 35 36 40 44 48 46 48 46 41 44 44 48 46 51 50 40 67 49
21 19 23 25 32 34 34 36 36 30 31 30 28 26 19 25 33 39 33 31 37 41 46 42 48 47 41 39 44 47 57 49 59 52 48 49 46 44 44 43 44 43 23
19 21 24 29 34 32 36 34 32 26 26 27 24 28 26 25 25 25 35 39 44 43 51 53 50 44 47 45 40 38 45 44 38 45 45 46 40 40 44 44 42 46 52
19 19 22 30 32 32 32 27 28 24 25 23 24 23 26 23 27 24 28 32 35 38 46 49 46 43 44 46 44 45 50 50 62 47 40 40 40 39 29 31 29 39 43
19 21 26 30 29 29 34 26 24 25 18 18 19 18 18 18 26 23 29 31 36 39 41 45 49 48 44 41 47 46 45 45 40 41 53 31 38 36 32 34 33 48 40
20 22 27 28 27 26 24 24 24 20 16 17 13 18 19 17 22 29 31 33 35 36 39 37 41 40 42 48 49 50 46 41 39 38 43 49 34 36 32 35 40 38 39
19 22 25 26 24 23 20 22 18 12 10 11 9 14 13 14 18 20 19 24 27 26 32 31 33 40 36 36 27 26 30 37 45 44 45 37 31 32 36 40 43 45 44
19 22 24 26 22 20 20 15 14 10 6 4 1 5 7 8 15 18 18 22 23 22 21 26 30 37 26 30 34 35 33 28 37 37 32 33 30 26 20 21 22 28 28
23 24 25 24 22 20 16 10 7 4 4 3 7 9 10 10 9 12 18 21 15 13 16 19 17 17 21 22 20 18 21 27 28 26 20 25 25 21 19 18 17 18 19
21 24 24 23 21 20 11 7 5 3 4 5 7 13 13 11 15 18 16 11 14 16 22 21 17 14 10 9 8 7 4 7 7 7 6 3 6 6 4 3 2 4 6
18 21 21 21 20 15 8 3 4 2 3 6 7 10 13 17 19 20 24 25 26 31 27 25 24 22 22 25 29 23 27 21 21 16 14 11 9 8 7 6 5 4 6
17 16 16 17 17 14 11 4 6 10 4 6 11 13 20 21 25 29 28 28 30 34 29 26 27 26 25 24 23 21 18 12 8 5 5 2 6 5 5 10 12 12 11
Wind_Direction_500mb
210 213 219 232 242 261 266 265 265 266 267 260 259 259 258 257 245 246 236 250 257 262 267 267 260 252 245 241 232 232 230 226 234 242 247 252 258 265 264 248 222 189 184
214 228 239 243 236 250 264 275 275 270 270 273 264 259 256 253 252 246 253 251 256 256 262 266 263 256 250 247 239 236 236 236 239 244 248 251 258 267 263 230 199 205 209
248 247 247 251 261 265 265 263 262 268 271 270 270 268 267 262 255 249 251 261 260 256 257 259 261 262 253 250 251 247 244 240 242 245 250 255 260 275 266 236 204 217 213
270 277 275 272 270 272 274 276 275 272 274 272 272 270 269 267 266 261 250 255 264 262 259 259 261 259 256 252 249 251 250 246 243 246 250 253 262 271 264 244 208 217 218
302 297 293 291 297 296 288 278 275 280 280 269 269 268 270 274 272 266 261 263 270 271 266 258 258 260 256 252 247 250 254 252 247 242 248 252 258 265 262 254 224 220 226
312 303 298 292 290 288 283 284 292 297 297 293 280 269 267 269 271 270 274 277 274 273 275 277 266 258 257 251 252 250 251 254 250 241 246 248 259 262 257 251 235 230 235
326 313 307 296 290 286 281 283 287 292 304 313 314 293 277 271 274 276 275 266 274 273 266 269 270 272 262 256 255 256 251 250 252 242 260 236 257 261 257 250 239 230 230
332 324 313 304 294 288 284 279 278 284 293 309 318 321 324 318 304 303 264 263 284 292 270 262 264 271 271 263 260 254 254 250 250 248 253 257 251 258 251 250 227 225 224
344 337 325 313 306 296 292 289 284 275 292 283 285 296 310 297 318 287 314 279 279 297 314 263 255 266 275 272 265 260 258 257 256 254 253 255 248 252 255 250 229 225 225
343 345 342 339 333 319 302 293 285 275 269 284 291 275 272 277 287 299 294 266 267 288 292 293 296 297 291 266 266 270 267 264 259 257 257 254 254 256 235 228 225 226 227
331 335 340 345 347 340 335 328 315 293 274 267 264 269 269 269 270 278 290 289 284 283 280 282 288 283 287 286 291 284 270 265 263 255 253 255 255 256 253 235 233 227 220
308 307 321 341 341 331 322 317 308 299 293 288 282 263 262 273 275 282 284 285 287 290 292 286 277 281 287 289 290 288 286 278 272 266 260 252 253 253 255 234 231 222 223
315 324 334 335 332 329 322 315 312 310 296 283 279 277 266 259 267 283 282 282 292 293 291 287 286 284 283 286 289 289 293 272 276 267 262 255 254 253 248 258 234 225 231
335 335 325 325 320 318 315 309 303 300 302 304 296 289 269 263 259 269 279 287 290 291 291 292 290 294 288 282 283 283 294 281 271 266 259 258 256 254 252 250 256 227 219
316 312 318 315 317 316 311 306 297 294 293 304 303 305 264 266 265 267 272 272 276 282 287 294 299 305 296 289 285 283 289 285 276 266 264 261 260 260 248 232 246 220 218
308 306 307 309 316 313 306 306 302 290 290 296 301 297 287 288 279 261 274 272 268 277 285 290 291 298 301 298 287 285 294 276 272 269 270 264 261 258 259 263 232 225 236
309 306 307 311 313 312 313 313 314 295 292 292 297 290 282 282 289 280 267 274 273 280 284 285 290 293 295 293 297 278 280 292 290 275 272 260 253 248 244 241 239 246 251
317 315 314 316 318 324 320 318 310 303 293 298 305 302 296 274 280 283 278 279 275 273 277 287 292 290 290 291 288 290 284 283 280 291 284 263 256 248 251 260 252 243 240
325 325 326 326 327 323 317 320 312 317 305 302 304 306 308 287 283 276 280 274 276 283 277 284 286 286 289 283 285 285 288 274 261 270 273 256 244 248 247 247 255 233 229
324 331 332 327 321 318 311 309 314 313 299 288 286 292 297 287 285 284 283 281 279 278 277 280 284 280 281 288 283 277 280 261 248 265 255 257 233 224 232 235 237 228 223
330 333 331 332 323 324 315 318 328 321 317 303 295 285 279 288 302 308 307 296 292 293 290 283 286 279 287 283 306 288 278 263 248 235 234 241 243 238 229 228 229 234 236
327 332 329 328 324 314 315 322 329 323 309 293 334 353 344 339 328 335 328 303 304 305 295 280 285 285 282 288 287 271 279 268 252 239 237 246 239 238 239 240 237 241 240
334 336 335 325 318 322 318 313 321 357 3 62 46 33 17 34 13 7 10 11 2 349 321 300 289 277 280 287 289 269 270 253 249 249 261 250 247 248 243 239 240 239 240
334 337 334 335 326 324 303 299 257 263 78 62 31 41 41 43 52 44 35 19 42 54 54 51 55 53 35 22 356 332 324 273 235 231 221 232 189 174 141 65 311 247 226
320 327 329 331 328 334 318 295 231 166 98 73 69 60 63 74 79 65 60 63 76 75 71 69 72 75 77 75 76 81 85 82 91 89 84 88 106 128 148 167 198 238 244
304 316 339 337 343 336 313 235 171 114 107 101 105 92 89 79 80 76 73 75 76 72 66 62 64 62 60 62 72 71 69 72 81 100 147 175 186 208 242 252 253 253 233
Wind_Speed_850mb
16 18 22 19 18 18 16 17 17 19 20 20 25 28 29 28 32 33 35 37 33 30 27 25 28 27 26 27 27 27 30 39 38 37 35 33 30 30 27 20 18 21 29
8 12 14 15 19 21 19 19 18 18 20 24 23 25 31 32 33 40 39 40 41 41 38 34 32 34 34 34 33 34 35 40 43 38 37 35 31 27 23 19 21 30 31
10 12 14 16 18 20 19 22 25 24 23 23 23 21 23 27 34 41 40 43 42 43 44 41 40 38 41 39 40 38 42 44 46 47 41 36 33 28 26 21 28 32 30
7 10 13 15 17 19 21 24 26 25 28 35 33 32 30 31 30 31 41 46 47 50 48 45 45 45 45 45 44 46 45 48 52 53 48 43 39 35 33 26 34 43 41
12 13 15 18 19 19 19 20 22 27 29 35 39 40 39 39 37 36 34 34 37 40 44 49 48 46 48 51 50 51 49 49 53 58 54 50 46 45 42 37 42 51 46
13 15 14 15 16 16 16 20 21 25 26 28 33 43 42 44 44 43 42 40 39 40 41 41 39 43 42 47 50 55 54 51 52 66 57 56 51 51 49 44 43 54 53
13 15 15 15 17 18 17 18 21 25 27 32 32 28 32 41 46 46 38 33 31 40 45 43 37 37 39 45 48 50 57 56 51 59 70 63 57 54 53 50 50 52 51
15 16 17 17 17 18 18 18 19 22 24 17 27 30 22 30 9 13 14 16 18 25 36 41 30 33 35 39 42 49 48 54 56 57 59 59 69 66 60 58 57 56 54
18 19 19 18 19 21 21 21 22 18 24 21 16 16 14 10 32 11 10 13 18 20 16 29 45 54 47 40 43 48 49 54 58 62 64 62 69 78 70 68 66 63 55
19 21 20 18 18 19 20 22 22 22 23 27 26 22 29 37 39 27 14 16 14 25 34 32 34 33 32 47 47 47 45 46 53 60 59 66 65 85 77 77 73 62 59
18 19 20 18 18 18 18 19 20 23 27 34 34 32 31 33 38 44 47 42 44 40 44 50 44 35 35 32 35 43 49 54 56 60 65 61 60 68 63 84 80 69 71
16 15 18 17 18 19 22 24 25 26 27 29 30 37 39 34 38 40 45 51 53 54 48 41 41 47 45 39 37 41 42 43 55 54 59 68 60 63 69 72 71 72 70
17 17 19 21 23 25 28 32 30 27 25 29 33 37 37 46 41 35 40 46 50 54 55 50 41 46 49 50 49 46 48 49 50 53 48 54 56 58 62 64 88 83 88
21 19 21 23 24 28 33 35 33 31 31 33 34 36 35 41 46 42 42 45 47 38 48 49 48 40 37 41 41 44 43 44 46 47 48 51 60 65 62 68 73 80 83
17 20 21 25 29 35 34 36 37 33 30 32 30 25 28 29 35 41 41 38 40 44 42 42 36 35 36 40 44 48 46 48 46 41 44 44 48 46 51 50 40 67 49
21 19 23 25 32 34 34 36 36 30 31 30 28 26 19 25 33 39 33 31 37 41 46 42 48 47 41 39 44 47 57 49 59 52 48 49 46 44 44 43 44 43 23
19 21 24 29 34 32 36 34 32 26 26 27 24 28 26 25 25 25 35 39 44 43 51 53 50 44 47 45 40 38 45 44 38 45 45 46 40 40 44 44 42 46 52
19 19 22 30 32 32 32 27 28 24 25 23 24 23 26 23 27 24 28 32 35 38 46 49 46 43 44 46 44 45 50 50 62 47 40 40 40 39 29 31 29 39 43
19 21 26 30 29 29 34 26 24 25 18 18 19 18 18 18 26 23 29 31 36 39 41 45 49 48 44 41 47 46 45 45 40 41 53 31 38 36 32 34 33 48 40
20 22 27 28 27 26 24 24 24 20 16 17 13 18 19 17 22 29 31 33 35 36 39 37 41 40 42 48 49 50 46 41 39 38 43 49 34 36 32 35 40 38 39
19 22 25 26 24 23 20 22 18 12 10 11 9 14 13 14 18 20 19 24 27 26 32 31 33 40 36 36 27 26 30 37 45 44 45 37 31 32 36 40 43 45 44
19 22 24 26 22 20 20 15 14 10 6 4 1 5 7 8 15 18 18 22 23 22 21 26 30 37 26 30 34 35 33 28 37 37 32 33 30 26 20 21 22 28 28
23 24 25 24 22 20 16 10 7 4 4 3 7 9 10 10 9 12 18 21 15 13 16 19 17 17 21 22 20 18 21 27 28 26 20 25 25 21 19 18 17 18 19
21 24 24 23 21 20 11 7 5 3 4 5 7 13 13 11 15 18 16 11 14 16 22 21 17 14 10 9 8 7 4 7 7 7 6 3 6 6 4 3 2 4 6
18 21 21 21 20 15 8 3 4 2 3 6 7 10 13 17 19 20 24 25 26 31 27 25 24 22 22 25 29 23 27 21 21 16 14 11 9 8 7 6 5 4 6
17 16 16 17 17 14 11 4 6 10 4 6 11 13 20 21 25 29 28 28 30 34 29 26 27 26 25 24 23 21 18 12 8 5 5 2 6 5 5 10 12 12 11
Wind_Direction_850mb
210 213 219 232 242 261 266 265 265 266 267 260 259 259 258 257 245 246 236 250 257 262 267 267 260 252 245 241 232 232 230 226 234 242 247 252 258 265 264 248 222 189 184
214 228 239 243 236 250 264 275 275 270 270 273 264 259 256 253 252 246 253 251 256 256 262 266 263 256 250 247 239 236 236 236 239 244 248 251 258 267 263 230 199 205 209
248 247 247 251 261 265 265 263 262 268 271 270 270 268 267 262 255 249 251 261 260 256 257 259 261 262 253 250 251 247 244 240 242 245 250 255 260 275 266 236 204 217 213
270 277 275 272 270 272 274 276 275 272 274 272 272 270 269 267 266 261 250 255 264 262 259 259 261 259 256 252 249 251 250 246 243 246 250 253 262 271 264 244 208 217 218
302 297 293 291 297 296 288 278 275 280 280 269 269 268 270 274 272 266 261 263 270 271 266 258 258 260 256 252 247 250 254 252 247 242 248 252 258 265 262 254 224 220 226
312 303 298 292 290 288 283 284 292 297 297 293 280 269 267 269 271 270 274 277 274 273 275 277 266 258 257 251 252 250 251 254 250 241 246 248 259 262 257 251 235 230 235
326 313 307 296 290 286 281 283 287 292 304 313 314 293 277 271 274 276 275 266 274 273 266 269 270 272 262 256 255 256 251 250 252 242 260 236 257 261 257 250 239 230 230
332 324 313 304 294 288 284 279 278 284 293 309 318 321 324 318 304 303 264 263 284 292 270 262 264 271 271 263 260 254 254 250 250 248 253 257 251 258 251 250 227 225 224
344 337 325 313 306 296 292 289 284 275 292 283 285 296 310 297 318 287 314 279 279 297 314 263 255 266 275 272 265 260 258 257 256 254 253 255 248 252 255 250 229 225 225
343 345 342 339 333 319 302 293 285 275 269 284 291 275 272 277 287 299 294 266 267 288 292 293 296 297 291 266 266 270 267 264 259 257 257 254 254 256 235 228 225 226 227
331 335 340 345 347 340 335 328 315 293 274 267 264 269 269 269 270 278 290 289 284 283 280 282 288 283 287 286 291 284 270 265 263 255 253 255 255 256 253 235 233 227 220
308 307 321 341 341 331 322 317 308 299 293 288 282 263 262 273 275 282 284 285 287 290 292 286 277 281 287 289 290 288 286 278 272 266 260 252 253 253 255 234 231 222 223
315 324 334 335 332 329 322 315 312 310 296 283 279 277 266 259 267 283 282 282 292 293 291 287 286 284 283 286 289 289 293 272 276 267 262 255 254 253 248 258 234 225 231
335 335 325 325 320 318 315 309 303 300 302 304 296 289 269 263 259 269 279 287 290 291 291 292 290 294 288 282 283 283 294 281 271 266 259 258 256 254 252 250 256 227 219
316 312 318 315 317 316 311 306 297 294 293 304 303 305 264 266 265 267 272 272 276 282 287 294 299 305 296 289 285 283 289 285 276 266 264 261 260 260 248 232 246 220 218
308 306 307 309 316 313 306 306 302 290 290 296 301 297 287 288 279 261 274 272 268 277 285 290 291 298 301 298 287 285 294 276 272 269 270 264 261 258 259 263 232 225 236
309 306 307 311 313 312 313 313 314 295 292 292 297 290 282 282 289 280 267 274 273 280 284 285 290 293 295 293 297 278 280 292 290 275 272 260 253 248 244 241 239 246 251
317 315 314 316 318 324 320 318 310 303 293 298 305 302 296 274 280 283 278 279 275 273 277 287 292 290 290 291 288 290 284 283 280 291 284 263 256 248 251 260 252 243 240
325 325 326 326 327 323 317 320 312 317 305 302 304 306 308 287 283 276 280 274 276 283 277 284 286 286 289 283 285 285 288 274 261 270 273 256 244 248 247 247 255 233 229
324 331 332 327 321 318 311 309 314 313 299 288 286 292 297 287 285 284 283 281 279 278 277 280 284 280 281 288 283 277 280 261 248 265 255 257 233 224 232 235 237 228 223
330 333 331 332 323 324 315 318 328 321 317 303 295 285 279 288 302 308 307 296 292 293 290 283 286 279 287 283 306 288 278 263 248 235 234 241 243 238 229 228 229 234 236
327 332 329 328 324 314 315 322 329 323 309 293 334 353 344 339 328 335 328 303 304 305 295 280 285 285 282 288 287 271 279 268 252 239 237 246 239 238 239 240 237 241 240
334 336 335 325 318 322 318 313 321 357 3 62 46 33 17 34 13 7 10 11 2 349 321 300 289 277 280 287 289 269 270 253 249 249 261 250 247 248 243 239 240 239 240
334 337 334 335 326 324 303 299 257 263 78 62 31 41 41 43 52 44 35 19 42 54 54 51 55 53 35 22 356 332 324 273 235 231 221 232 189 174 141 65 311 247 226
320 327 329 331 328 334 318 295 231 166 98 73 69 60 63 74 79 65 60 63 76 75 71 69 72 75 77 75 76 81 85 82 91 89 84 88 106 128 148 167 198 238 244
304 316 339 337 343 336 313 235 171 114 107 101 105 92 89 79 80 76 73 75 76 72 66 62 64 62 60 62 72 71 69 72 81 100 147 175 186 208 242 252 253 253 233